Regional Weather Roundup
Issued by NWS Bismarck, ND

Home | Current Version | Previous Version | Text Only | Print | Product List | Glossary On
Versions: 1 2 3 4 5 6 7 8 9 10 11 12 13 14 15 16 17 18 19 20 21 22 23 24 25 26 27 28 29 30 31 32 33 34 35 36 37 38 39 40 41 42 43 44 45 46 47 48 49 50
000
ASUS43 KBIS 021610
RWRBIS

NWR BROADCAST TEXT
NATIONAL WEATHER SERVICE BISMARCK ND
1100 AM CDT MON MAY 02 2016

NOTE: "FAIR" INDICATES FEW OR NO CLOUDS BELOW 12,000 FEET WITH NO
SIGNIFICANT WEATHER AND/OR OBSTRUCTIONS TO VISIBILITY.


CITY           SKY/WX    TMP DP  RH WIND       PRES   REMARKS
WILLISTON      SUNNY     67  38  34 N16       30.03S
MINOT          SUNNY     65  36  34 N8        29.97R
MINOT AFB      SUNNY     61  39  44 NE13      29.97R
BISMARCK       CLOUDY    52  46  80 E7        30.02R
DICKINSON      MOSUNNY   59  34  39 NW24G30   30.00F
GARRISON         N/A     61  39  44 N12       29.96F
HETTINGER ARPT LGT RAIN  62  33  33 NW25G31   30.06F
JAMESTOWN      LGT RAIN  52  44  74 S13       30.02F
BEACH          FAIR      61  32  33 NW21G28   30.10F
CARRINGTON     PTSUNNY   55  41  58 S10       30.03S
HAZEN          FAIR      59  37  44 NW10      29.99F
LINTON         LGT RAIN  46  46 100 SE6       30.05F
MANDAN         FAIR      54  46  76 S6        30.01S
OAKES            N/A    N/A N/A N/A MISG        N/A
RUGBY          FAIR      59  41  51 SE6       30.00R
STANLEY        FAIR      63  37  39 N18       30.02R
WATFORD CITY   FAIR      63  37  39 NW16      30.02S
$$

CITY           SKY/WX    TMP DP  RH WIND       PRES   REMARKS
GRAND FORKS    MOSUNNY   64  32  30 SE5       30.01F
GRAND FORKS AF SUNNY     64  32  30 E9        30.02R
DEVILS LAKE    CLOUDY    55  40  56 SW6       30.02S
FARGO          SUNNY     63  31  30 VRB3      30.02F
CANDO          FAIR      59  36  41 SE12G18   30.03S
CAVALIER       FAIR      63  36  36 NE9G16    30.02F
GRAFTON        FAIR      64  36  34 NE6       30.04S
GWINNER        FAIR      63  36  36 W7        30.04F
LANGDON        FAIR      63  36  36 VRB6      30.03S
ROLLA          FAIR      59  36  41 W3        30.02S
WALHALLA       FAIR      63  36  36 NE8       30.03S
$$

CITY           SKY/WX    TMP DP  RH WIND       PRES   REMARKS
ABERDEEN       MOSUNNY   59  39  47 S8        30.05F
MOBRIDGE       LGT RAIN  50  40  68 NW8       30.04F
BUFFALO          N/A     62  30  29 NW20      30.02F
RAPID CITY     PTSUNNY   58  33  39 N7        30.12F
GLASGOW        SUNNY     61  38  42 NW10      30.12S
SIDNEY         SUNNY     64  36  34 NW20      30.04F
WOLF POINT     SUNNY     70  38  31 NW17      30.07F
GLENDIVE       SUNNY     63  36  36 NW21G29   30.10F
MILES CITY     SUNNY     59  39  47 W9        30.13F
BAKER          SUNNY     60  33  36 NW20G26   30.11F
$$

CITY           SKY/WX    TMP DP  RH WIND       PRES   REMARKS
BILLINGS       MOSUNNY   53  36  52 SW9       30.20S
REGINA         MOSUNNY   63  34  34 VRB2      30.06R
ESTEVAN        PTSUNNY   66  32  28 NE14G25   30.01S
$$





USA.gov is the U.S. government's official web portal to all federal, state and local government web resources and services.